Ashtabula, OH

3:31 PM EST on December 17, 2017 (GMT -0500)
Ashtabula County

Weather History for KHZY - May, 2014

Change the Weather History Date:

Saturday, May 31, 2014

  Actual Average (KGKJ) Record (KGKJ)
Temperature  
Mean Temperature 62 °F -  
Max Temperature 75 °F 74 °F 89 °F (1987)
Min Temperature 48 °F 51 °F 36 °F (1961)
Degree Days  
Heating Degree Days 4    
Growing Degree Days 12 (Base 50)    
Moisture  
Dew Point 44 °F    
Average Humidity 57    
Maximum Humidity 93    
Minimum Humidity 26    
Precipitation  
Precipitation 0.00 in - - ()
Sea Level Pressure  
Sea Level Pressure 30.22 in    
Wind  
Wind Speed 3 mph (ENE)    
Max Wind Speed 8 mph    
Max Gust Speed 18 mph    
Visibility 10 miles    
Events      
Averages and records for this station are not official NWS values.
T = Trace of Precipitation, MM = Missing Value Source: NWS Daily Summary

Daily Weather History Graph

Daily Weather History Graph

Search for Another Location

Airport or City:

Trip Planner

Search our weather history database for the weather conditions in past years. The results will help you decide how hot, cold, wet, or windy it might be!

Date:

Astronomy

May. 31, 2014 Rise Set
Actual Time 5:50 AM EDT 8:50 PM EDT
Civil Twilight 5:17 AM EDT 9:23 PM EDT
Nautical Twilight 4:35 AM EDT 10:06 PM EDT
Astronomical Twilight 3:45 AM EDT 10:56 PM EDT
Moon 8:27 AM EDT (5/31) 11:06 PM EDT (5/31)
Length of Visible Light 16h 06m
Length of Day
14h 59m
Waxing Crescent, 8% of the Moon is Illuminated
May 31
Waxing Crescent
Jun 5
First Quarter
Jun 13
Full
Jun 19
Last Quarter
Jun 27
New

Hourly Weather History & Observations

Time (EDT) Temp. Dew Point Humidity Pressure Visibility Wind Dir Wind Speed Gust Speed Precip Events Conditions
12:53 AM 54.0 °F 50.0 °F 86% 30.19 in 10.0 mi Calm Calm - N/A   Clear
1:53 AM 52.0 °F 48.9 °F 89% 30.19 in 10.0 mi Calm Calm - N/A   Clear
2:53 AM 51.1 °F 48.0 °F 89% 30.20 in 10.0 mi Calm Calm - N/A   Clear
3:53 AM 51.1 °F 48.0 °F 89% 30.21 in 10.0 mi Calm Calm - N/A   Clear
4:53 AM 48.9 °F 46.9 °F 93% 30.21 in 10.0 mi East 3.5 mph - N/A   Clear
5:53 AM 48.9 °F 46.0 °F 90% 30.23 in 10.0 mi Calm Calm - N/A   Clear
6:53 AM 51.1 °F 48.0 °F 89% 30.25 in 10.0 mi Calm Calm - N/A   Clear
8:53 AM 64.9 °F 50.0 °F 58% 30.26 in 10.0 mi East 5.8 mph - N/A   Clear
9:53 AM 70.0 °F 51.1 °F 51% 30.26 in 10.0 mi East 8.1 mph - N/A   Clear
11:53 AM 73.9 °F 46.0 °F 37% 30.25 in 10.0 mi Variable 5.8 mph - N/A   Clear
12:53 PM 75.0 °F 48.0 °F 38% 30.24 in 10.0 mi Variable 5.8 mph - N/A   Clear
1:53 PM 73.9 °F 43.0 °F 33% 30.24 in 10.0 mi NE 8.1 mph - N/A   Clear
2:53 PM 75.0 °F 39.9 °F 28% 30.23 in 10.0 mi North 8.1 mph 18.4 mph N/A   Clear
3:53 PM 73.9 °F 39.9 °F 29% 30.23 in 10.0 mi Variable 6.9 mph 18.4 mph N/A   Clear
4:53 PM 72.0 °F 35.1 °F 26% 30.23 in 10.0 mi NE 8.1 mph - N/A   Clear
5:53 PM 72.0 °F 35.1 °F 26% 30.22 in 10.0 mi NNE 6.9 mph - N/A   Clear
6:53 PM 72.0 °F 39.0 °F 30% 30.21 in 10.0 mi NE 5.8 mph - N/A   Clear
7:53 PM 69.1 °F 42.1 °F 38% 30.20 in 10.0 mi ENE 3.5 mph - N/A   Clear
8:53 PM 63.0 °F 43.0 °F 48% 30.20 in 10.0 mi NE 3.5 mph - N/A   Clear
9:53 PM 60.1 °F 42.1 °F 51% 30.21 in 10.0 mi ENE 5.8 mph - N/A   Clear
10:53 PM 55.0 °F 42.1 °F 62% 30.22 in 10.0 mi East 3.5 mph - N/A   Clear
11:53 PM 53.1 °F 43.0 °F 69% 30.22 in 10.0 mi East 3.5 mph - N/A   Clear